DW8201 Weather Reports


time (UTC)temp
F
wind
direction
speed
knots
gust
knots
rain 1hr
in
rain 24hr
in
rain mn
in
humidity
%
barometer
mb
20260506044304 47 345 2.6 6.1 0.01 0.06 0.05 94 1005.6
20260506043756 47 334 2.6 4.3 0.01 0.06 0.05 94 1005.7
20260506043245 47 316 3.5 7.8 0.01 0.06 0.05 94 1005.7
20260506042736 47 335 3.5 7.8 0.01 0.06 0.05 94 1005.6
20260506042229 47 328 3.5 7.0 0.01 0.06 0.05 94 1005.6
20260506041723 47 356 2.6 6.1 0.01 0.06 0.05 94 1005.6
20260506041604 47 12 2.6 7.0 0.01 0.06 0.05 94 1005.6
20260506041405 47 336 2.6 7.0 0.01 0.06 0.05 94 1005.6
20260506040255 47 356 2.6 5.2 0.01 0.06 0.05 94 1005.7
20260506035746 47 23 1.7 5.2 0.01 0.06 0.05 94 1005.6
20260506035236 47 352 2.6 5.2 0.01 0.06 0.05 94 1005.7
20260506034726 47 18 2.6 7.0 0.00 0.05 0.04 94 1005.8
20260506034722 47 338 2.6 6.1 0.00 0.05 0.04 94 1005.7
20260506034716 47 329 3.5 7.0 0.00 0.05 0.04 94 1005.7
20260506033309 47 324 2.6 6.1 0.00 0.05 0.04 94 1005.8
20260506032801 47 334 1.7 4.3 0.00 0.05 0.04 94 1005.8
20260506032252 47 316 2.6 6.1 0.00 0.05 0.04 94 1005.7
20260506031744 47 311 2.6 5.2 0.00 0.05 0.04 94 1005.8
20260506031237 47 6 1.7 7.0 0.00 0.05 0.04 94 1005.8
20260506030732 47 340 2.6 6.1 0.01 0.05 0.04 94 1005.9
20260506030222 47 322 2.6 7.0 0.01 0.05 0.04 94 1006.0
20260506025711 47 356 2.6 7.0 0.01 0.05 0.04 94 1006.1
20260506025306 47 351 1.7 7.0 0.01 0.05 0.04 94 1006.0
20260506024758 47 348 1.7 5.2 0.01 0.05 0.04 94 1006.0
20260506024250 47 342 1.7 4.3 0.01 0.05 0.04 94 1006.1
20260506024137 47 291 1.7 4.3 0.01 0.05 0.04 93 1006.1
20260506023531 47 347 2.6 6.1 0.01 0.05 0.04 93 1006.1
20260506023027 47 356 2.6 6.1 0.01 0.05 0.04 93 1006.1
20260506022216 47 325 1.7 7.0 0.01 0.05 0.04 93 1006.2
20260506021710 47 323 2.6 7.0 0.01 0.05 0.04 93 1006.1
20260506021205 47 342 2.6 7.0 0.01 0.06 0.04 93 1006.2
20260506020809 47 331 2.6 5.2 0.00 0.05 0.03 93 1006.2
20260506020246 48 330 2.6 5.2 0.00 0.05 0.03 93 1006.2
20260506020136 47 334 1.7 5.2 0.00 0.05 0.03 93 1006.2
20260506015228 48 352 1.7 7.8 0.01 0.05 0.03 93 1006.3
20260506014720 48 6 1.7 7.8 0.01 0.05 0.03 93 1006.3
20260506014211 48 341 1.7 4.3 0.01 0.05 0.03 93 1006.3
20260506013659 48 6 1.7 4.3 0.01 0.05 0.03 93 1006.3
20260506013654 48 320 1.7 6.1 0.01 0.05 0.03 93 1006.4
20260506012750 48 24 1.7 6.1 0.01 0.05 0.03 93 1006.4
20260506012240 48 356 2.6 5.2 0.01 0.05 0.03 93 1006.4
20260506011732 48 349 2.6 6.1 0.01 0.05 0.03 93 1006.4
20260506011526 48 30 1.7 6.1 0.01 0.05 0.03 93 1006.4
20260506010719 48 330 1.7 5.2 0.01 0.05 0.03 93 1006.5
20260506010211 48 346 2.6 5.2 0.01 0.05 0.03 93 1006.4
20260506005704 48 349 2.6 5.2 0.01 0.05 0.03 93 1006.5
20260506005456 48 310 2.6 6.1 0.00 0.05 0.03 93 1006.6
20260506005040 48 356 1.7 5.2 0.01 0.05 0.02 93 1006.7
20260506005036 48 36 1.7 6.1 0.01 0.05 0.02 93 1006.6
20260506004230 48 6 1.7 5.2 0.01 0.05 0.02 93 1006.7
20260506003729 48 324 1.7 4.3 0.01 0.05 0.02 93 1006.6
20260506002714 48 6 0.9 5.2 0.01 0.05 0.02 93 1006.7
20260506002205 48 339 1.7 3.5 0.01 0.05 0.02 93 1006.7
20260506001657 48 337 1.7 6.1 0.01 0.05 0.02 93 1006.7
20260506001151 48 337 1.7 6.1 0.01 0.05 0.02 93 1006.8
20260506000743 48 328 1.7 5.2 0.01 0.05 0.02 93 1006.8
20260506000235 48 341 2.6 5.2 0.02 0.05 0.02 93 1006.9
20260505235727 49 10 1.7 5.2 0.02 0.05 0.02 92 1006.9
20260505235221 49 339 0.9 3.5 0.02 0.05 0.02 92 1007.0
20260505235110 49 345 1.7 5.2 0.01 0.04 0.02 92 1007.0
20260505234205 49 335 1.7 5.2 0.01 0.04 0.02 92 1007.0
20260505233656 49 352 1.7 4.3 0.01 0.04 0.02 92 1007.1
20260505233151 49 345 1.7 6.1 0.01 0.04 0.02 92 1007.1
20260505232740 49 339 2.6 7.0 0.01 0.04 0.02 92 1007.1
20260505232230 49 315 1.7 7.0 0.02 0.04 0.02 92 1007.1
20260505231725 49 349 1.7 5.2 0.02 0.04 0.02 92 1007.2
20260505231217 49 10 1.7 5.2 0.02 0.04 0.02 91 1007.2
20260505230706 49 303 1.7 6.1 0.02 0.04 0.02 91 1007.2
20260505230159 49 10 2.6 6.1 0.01 0.03 0.01 91 1007.2
20260505225651 49 25 2.6 5.2 0.01 0.03 0.01 91 1007.2
20260505225145 49 327 1.7 5.2 0.01 0.03 0.01 91 1007.3
20260505224735 49 351 2.6 7.0 0.01 0.03 0.01 91 1007.3
20260505224227 49 350 2.6 7.0 0.01 0.03 0.01 91 1007.2
20260505223719 49 325 2.6 5.2 0.01 0.03 0.01 91 1007.3
20260505223216 50 10 1.7 5.2 0.01 0.04 0.01 90 1007.3
20260505222707 50 349 1.7 3.5 0.01 0.04 0.01 90 1007.3
20260505222500 50 339 1.7 4.3 0.00 0.03 0.00 90 1007.3
20260505221650 50 347 1.7 5.2 0.00 0.03 0.00 90 1007.3
20260505221143 50 10 2.6 6.1 0.00 0.03 0.00 89 1007.4
20260505221034 50 6 3.5 7.0 0.00 0.03 0.00 89 1007.4
20260505220221 50 346 3.5 7.0 0.00 0.03 0.00 89 1007.4
20260505215710 50 334 2.6 7.0 0.00 0.03 0.03 89 1007.4
20260505215201 50 346 3.5 7.8 0.00 0.03 0.03 89 1007.4
20260505214653 50 329 2.6 7.8 0.00 0.03 0.03 89 1007.5
20260505214148 50 6 1.7 4.3 0.00 0.04 0.03 89 1007.5
20260505213638 50 340 2.6 6.1 0.00 0.04 0.03 89 1007.5
20260505213228 50 336 2.6 6.1 0.00 0.04 0.03 89 1007.6
20260505212721 50 25 2.6 6.1 0.00 0.04 0.03 89 1007.6
20260505212307 50 6 2.6 6.1 0.00 0.05 0.03 89 1007.5
20260505212046 50 314 2.6 6.1 0.00 0.05 0.03 89 1007.6
20260505211253 50 6 3.5 7.8 0.00 0.05 0.03 89 1007.6
20260505211053 50 335 3.5 7.8 0.00 0.05 0.03 89 1007.6
20260505210231 50 349 2.6 7.0 0.00 0.05 0.03 89 1007.7
20260505210034 50 19 3.5 6.1 0.00 0.06 0.03 89 1007.8
20260505205315 51 332 3.5 7.8 0.00 0.06 0.03 89 1007.7
20260505205118 51 10 3.5 7.8 0.00 0.06 0.03 89 1007.7
20260505204259 51 1 2.6 7.8 0.00 0.06 0.03 89 1007.8
20260505203749 51 35 4.3 10.4 0.00 0.06 0.03 89 1007.8
20260505203242 51 18 4.3 10.4 0.00 0.06 0.03 89 1007.8
20260505202734 51 309 3.5 9.6 0.00 0.06 0.03 89 1007.8
20260505202226 51 18 2.6 8.7 0.00 0.06 0.03 89 1007.8
20260505201716 51 320 1.7 4.3 0.00 0.06 0.03 89 1007.8
20260505201300 51 334 2.6 7.0 0.00 0.06 0.03 89 1007.8
20260505200755 51 21 2.6 7.0 0.00 0.06 0.03 89 1007.7
20260505200248 51 348 2.6 5.2 0.00 0.06 0.03 89 1007.7
20260505195738 51 52 2.6 7.0 0.00 0.06 0.03 89 1007.7
20260505195230 51 6 3.5 7.0 0.00 0.06 0.03 89 1007.7
20260505194724 51 356 3.5 6.1 0.00 0.06 0.03 89 1007.6
20260505194213 51 349 2.6 6.1 0.00 0.06 0.03 89 1007.6
20260505194016 51 6 2.6 6.1 0.00 0.06 0.03 89 1007.5
20260505193911 51 17 1.7 7.0 0.00 0.06 0.03 89 1007.5
20260505192750 51 324 1.7 5.2 0.00 0.06 0.03 90 1007.4
20260505192743 51 351 2.6 7.0 0.00 0.06 0.03 89 1007.5
20260505192237 51 47 1.7 6.1 0.00 0.06 0.03 89 1007.4
20260505191833 51 347 1.7 6.1 0.00 0.06 0.03 90 1007.4
20260505190715 51 345 1.7 5.2 0.00 0.06 0.03 90 1007.4
20260505190207 51 322 2.6 6.1 0.00 0.06 0.03 90 1007.4
20260505185701 51 324 1.7 6.1 0.00 0.06 0.03 90 1007.3
20260505185250 51 350 1.7 3.5 0.00 0.06 0.03 89 1007.3
20260505184743 51 351 1.7 3.5 0.00 0.06 0.03 89 1007.3
20260505184233 51 348 1.7 4.3 0.00 0.06 0.03 89 1007.4
20260505183726 51 345 1.7 4.3 0.00 0.06 0.03 89 1007.4
20260505183223 51 30 1.7 4.3 0.00 0.06 0.03 89 1007.3
20260505182714 51 338 2.6 5.2 0.00 0.06 0.03 89 1007.3
20260505182207 51 346 2.6 5.2 0.00 0.06 0.03 89 1007.3
20260505182007 51 356 2.6 5.2 0.00 0.06 0.03 90 1007.3
20260505181246 51 349 2.6 5.2 0.00 0.06 0.03 89 1007.3
20260505180732 51 356 1.7 5.2 0.00 0.06 0.03 89 1007.4
20260505180227 51 18 1.7 6.1 0.00 0.06 0.03 90 1007.4
20260505175727 51 356 1.7 5.2 0.00 0.06 0.03 90 1007.4
20260505175720 51 326 2.6 6.1 0.00 0.06 0.03 90 1007.4
20260505174708 51 351 0.9 3.5 0.00 0.06 0.03 90 1007.4
20260505174203 51 6 0.9 4.3 0.00 0.06 0.03 90 1007.5
20260505173654 52 6 1.7 5.2 0.00 0.06 0.03 90 1007.4
20260505173148 51 350 2.6 6.1 0.00 0.06 0.03 90 1007.4
20260505172734 51 67 1.7 6.1 0.00 0.06 0.03 90 1007.4
20260505172223 52 319 2.6 6.1 0.00 0.06 0.03 90 1007.3
20260505171723 52 340 2.6 5.2 0.00 0.06 0.03 90 1007.3
20260505171715 52 348 2.6 6.1 0.00 0.06 0.03 90 1007.3
20260505170701 52 356 1.7 7.0 0.00 0.06 0.03 90 1007.4
20260505170154 52 324 2.6 7.0 0.00 0.06 0.03 90 1007.4
20260505165650 52 340 2.6 7.0 0.00 0.06 0.03 90 1007.4
20260505165144 52 20 2.6 7.0 0.00 0.06 0.03 90 1007.5
20260505164731 52 280 2.6 6.1 0.00 0.06 0.03 90 1007.5
20260505164223 52 319 2.6 7.0 0.00 0.06 0.03 90 1007.5
20260505163714 52 17 2.6 7.0 0.00 0.06 0.03 90 1007.5
20260505163204 52 351 1.7 5.2 0.00 0.06 0.03 90 1007.5
20260505162658 52 346 1.7 5.2 0.00 0.06 0.03 90 1007.5
20260505162150 52 356 1.7 5.2 0.00 0.06 0.03 90 1007.6
20260505161641 52 305 1.7 4.3 0.00 0.06 0.03 90 1007.6
20260505161136 52 6 2.6 6.1 0.00 0.06 0.03 90 1007.6
20260505160734 52 29 1.7 5.2 0.00 0.06 0.03 90 1007.7
20260505160630 52 342 2.6 6.1 0.00 0.06 0.03 89 1007.6
20260505153141 52 346 1.7 6.1 0.00 0.06 0.03 90 1007.8
20260505152627 52 42 2.6 7.0 0.00 0.06 0.03 90 1007.8
20260505152215 52 11 1.7 7.0 0.00 0.06 0.03 90 1007.9
20260505151705 52 328 1.7 5.2 0.00 0.06 0.03 90 1007.9
20260505151158 52 322 2.6 7.0 0.00 0.06 0.03 90 1007.9
20260505150650 52 351 2.6 7.0 0.00 0.06 0.03 90 1008.0
20260505150140 52 328 2.6 7.0 0.00 0.06 0.03 90 1008.0
20260505140614 51 28 2.6 7.0 0.00 0.06 0.03 91 1008.3
20260505130120 51 1 3.5 8.7 0.00 0.06 0.03 92 1008.7
20260505130113 51 338 3.5 8.7 0.00 0.06 0.03 92 1008.7
20260505124557 51 290 2.6 7.8 0.00 0.06 0.03 93 1008.8
20260505124036 51 336 2.6 7.0 0.00 0.06 0.03 93 1008.8
20260505123524 51 27 2.6 7.0 0.00 0.06 0.03 92 1008.8
20260505123117 51 13 2.6 6.1 0.00 0.06 0.03 92 1008.8
20260505122619 51 356 1.7 6.1 0.00 0.06 0.03 93 1008.8
20260505122058 51 27 1.7 7.0 0.00 0.06 0.03 93 1008.8
20260505121550 51 6 3.5 7.8 0.00 0.06 0.03 93 1008.8
20260505121039 51 12 3.5 9.6 0.00 0.06 0.03 93 1008.8
20260505120532 51 6 4.3 9.6 0.00 0.06 0.03 93 1008.8
20260505120020 51 337 5.2 10.4 0.00 0.06 0.03 93 1008.8
20260505115512 51 28 4.3 10.4 0.00 0.06 0.03 94 1008.8
20260505115008 51 356 3.5 10.4 0.00 0.06 0.03 94 1008.8
20260505114601 51 1 3.5 7.8 0.00 0.06 0.03 94 1008.9
20260505114555 51 349 3.5 10.4 0.00 0.06 0.03 94 1008.9
20260505113534 51 23 4.3 9.6 0.00 0.06 0.03 94 1008.9
20260505113026 50 6 4.3 9.6 0.00 0.06 0.03 93 1009.0
20260505112523 50 6 3.5 7.8 0.00 0.06 0.03 94 1009.1
20260505112518 50 346 3.5 8.7 0.00 0.06 0.03 94 1009.0
20260505111501 50 345 2.6 7.8 0.00 0.06 0.03 94 1009.1
20260505111050 51 339 2.6 6.1 0.00 0.06 0.03 94 1009.1
20260505110553 50 326 2.6 7.8 0.00 0.06 0.03 94 1009.2
20260505101509 49 42 2.6 7.0 0.00 0.06 0.03 94 1009.3
20260505101012 49 25 2.6 7.0 0.00 0.06 0.03 93 1009.3
20260505100449 49 343 2.6 7.0 0.00 0.06 0.03 93 1009.3
20260505095949 49 34 2.6 6.1 0.00 0.06 0.03 93 1009.4
20260505095540 49 13 3.5 7.0 0.00 0.06 0.03 93 1009.4
20260505095022 49 346 3.5 7.0 0.00 0.06 0.03 93 1009.4
20260505094512 49 6 2.6 7.0 0.00 0.06 0.03 94 1009.4
20260505094005 50 10 1.7 6.1 0.00 0.06 0.03 94 1009.4
20260505093455 50 339 1.7 6.1 0.00 0.06 0.03 94 1009.4
20260505092950 50 356 1.7 6.1 0.00 0.06 0.03 94 1009.4
20260505092946 50 347 0.9 4.3 0.00 0.06 0.03 94 1009.4
20260505092036 50 18 1.7 6.1 0.00 0.06 0.03 94 1009.4
20260505091922 50 337 1.7 5.2 0.00 0.06 0.03 94 1009.4
20260505091009 50 35 1.7 6.1 0.00 0.06 0.03 94 1009.4
20260505090500 49 339 2.6 6.1 0.00 0.06 0.03 94 1009.4
20260505085950 49 19 2.6 6.1 0.00 0.06 0.03 94 1009.4
20260505085442 49 343 2.6 6.1 0.00 0.06 0.03 94 1009.3
20260505084942 49 31 3.5 7.8 0.00 0.06 0.03 94 1009.3
20260505084932 49 332 3.5 7.8 0.00 0.06 0.03 94 1009.3
20260505084025 49 1 3.5 7.8 0.00 0.06 0.03 94 1009.3
20260505083515 49 1 3.5 8.7 0.00 0.06 0.03 94 1009.4
20260505083004 49 328 3.5 8.7 0.00 0.06 0.03 94 1009.4
20260505082859 49 12 3.5 7.0 0.00 0.06 0.03 94 1009.4
20260505081939 49 277 3.5 7.0 0.00 0.06 0.03 94 1009.3
20260505081537 50 345 4.3 8.7 0.00 0.06 0.03 94 1009.3
20260505081026 50 6 3.5 11.3 0.00 0.06 0.03 94 1009.3
20260505080516 50 351 3.5 11.3 0.00 0.06 0.03 94 1009.2
20260505080406 50 335 3.5 10.4 0.00 0.06 0.03 94 1009.3
20260505075502 50 335 3.5 6.1 0.00 0.06 0.03 94 1009.2
20260505074953 50 326 2.6 8.7 0.00 0.06 0.03 94 1009.3
20260505074437 50 341 3.5 8.7 0.00 0.06 0.03 94 1009.2
20260505073937 50 14 4.3 7.8 0.00 0.06 0.03 94 1009.2
20260505073525 50 347 3.5 7.0 0.00 0.06 0.03 94 1009.3
20260505073016 50 328 3.5 7.0 0.00 0.06 0.03 94 1009.2
20260505072509 51 1 3.5 7.0 0.00 0.07 0.03 94 1009.2
20260505072001 51 320 2.6 6.1 0.00 0.07 0.03 95 1009.2
20260505071449 51 1 2.6 7.0 0.00 0.07 0.03 95 1009.1
20260505070935 51 16 4.3 9.6 0.00 0.07 0.03 95 1009.2
20260505070433 51 344 3.5 9.6 0.00 0.07 0.03 95 1009.1
20260505070024 51 337 2.6 8.7 0.00 0.07 0.03 95 1009.2
20260505065512 51 345 2.6 8.7 0.00 0.07 0.03 95 1009.2
20260505065001 51 11 2.6 7.0 0.00 0.07 0.03 95 1009.3
20260505064453 51 6 3.5 8.7 0.00 0.07 0.03 95 1009.2
20260505063943 51 10 3.5 8.7 0.00 0.07 0.03 95 1009.3
20260505063431 51 52 3.5 8.7 0.00 0.07 0.03 95 1009.3
20260505063021 51 14 3.5 8.7 0.00 0.07 0.03 95 1009.4
20260505062913 51 356 2.6 6.1 0.00 0.07 0.03 95 1009.3
20260505062003 51 352 2.6 6.1 0.00 0.07 0.03 95 1009.3
20260505061851 51 1 1.7 6.1 0.00 0.07 0.03 95 1009.4
20260505060945 51 347 1.7 5.2 0.00 0.07 0.03 95 1009.4
20260505060433 51 345 1.7 5.2 0.00 0.07 0.03 95 1009.3
20260505060024 51 1 2.6 6.1 0.00 0.07 0.03 95 1009.3
20260505055513 51 348 3.5 7.8 0.00 0.07 0.03 95 1009.4
20260505055005 51 6 2.6 7.8 0.00 0.07 0.03 95 1009.4
20260505054506 51 343 2.6 7.0 0.01 0.07 0.03 95 1009.3
20260505053945 51 6 3.5 7.0 0.01 0.07 0.03 95 1009.2
20260505053437 51 356 3.5 7.0 0.01 0.07 0.03 95 1009.3
20260505052929 52 19 2.6 6.1 0.01 0.07 0.03 95 1009.3
20260505052520 52 1 2.6 7.8 0.01 0.07 0.03 95 1009.3
20260505052315 52 315 2.6 7.8 0.01 0.07 0.03 95 1009.2
20260505051504 52 6 2.6 7.0 0.01 0.07 0.03 95 1009.2
20260505050957 52 346 3.5 7.0 0.01 0.07 0.03 95 1009.2
20260505050448 52 21 3.5 7.0 0.01 0.07 0.03 95 1009.1